Location: Burera
(21.3780°N, 81.9534°E)
Time: 12:11:38
(UTC+00:00)

Cosmos 1484 Rocket - Pass Details

Date: 13 August 2020
Orbit: 506 x 559 km, 97.4° (Epoch: 22 September)

Event Time Altitude Azimuth Distance (km) Brightness Sun altitude
Rises 22:40:28 0° 21° (NNE) 2,610 7.0 -20.4°
Reaches altitude 10° 22:42:38 10° 29° (NNE) 1,727 6.1 -20.0°
Maximum altitude 22:46:08 40° 100° (E) 769 3.9 -19.2°
Drops below altitude 10° 22:49:41 10° 170° (S) 1,743 5.2 -18.5°
Enters shadow 22:50:16 - 173° (S) 1,976 5.5 -18.4°
